Wetterdaten: aktuell Samstag, 29.01.2022 15:20
Datum Zeit Temp. A. Temp. A. min Temp. A. max Feuchte A. Luftdruck Regen Wind Richtung Richtung Sonnenschein UV Solar Windben
29.01.2022 15:20 9,9 C 9,9 C 10,0 C 87 % 1022,5 hPa 0,0 l/m 24,1 km/h (4 Bft) W-SW 247 0 min 0,0 UV-I 7 W/m 35,4 km/h (5 Bft)
29.01.2022 15:15 10,0 C 9,9 C 10,0 C 87 % 1022,6 hPa 0,0 l/m 27,4 km/h (5 Bft) W-SW 247 0 min 0,0 UV-I 7 W/m 38,6 km/h (6 Bft)
29.01.2022 15:10 10,0 C 10,0 C 10,1 C 87 % 1022,5 hPa 0,0 l/m 24,1 km/h (4 Bft) W-SW 247 0 min 0,0 UV-I 5 W/m 35,4 km/h (5 Bft)
29.01.2022 15:05 10,1 C 10,1 C 10,1 C 87 % 1022,5 hPa 0,0 l/m 30,6 km/h (5 Bft) W-SW 247 0 min 0,0 UV-I 12 W/m 46,7 km/h (6 Bft)
29.01.2022 15:00 10,1 C 10,1 C 10,2 C 87 % 1022,7 hPa 0,0 l/m 27,4 km/h (5 Bft) SW 225 0 min 0,0 UV-I 19 W/m 40,2 km/h (6 Bft)
29.01.2022 14:55 10,1 C 10,1 C 10,1 C 87 % 1022,6 hPa 0,0 l/m 29,0 km/h (5 Bft) W-SW 247 0 min 0,0 UV-I 25 W/m 43,5 km/h (6 Bft)
29.01.2022 14:50 10,1 C 10,1 C 10,1 C 87 % 1022,6 hPa 0,0 l/m 29,0 km/h (5 Bft) W-SW 247 0 min 0,0 UV-I 76 W/m 38,6 km/h (6 Bft)
29.01.2022 14:45 10,1 C 10,0 C 10,1 C 87 % 1022,6 hPa 0,0 l/m 27,4 km/h (5 Bft) W-SW 247 0 min 0,0 UV-I 44 W/m 41,8 km/h (6 Bft)
29.01.2022 14:40 10,0 C 9,9 C 10,1 C 87 % 1022,7 hPa 0,0 l/m 25,7 km/h (4 Bft) SW 225 0 min 0,0 UV-I 33 W/m 41,8 km/h (6 Bft)
29.01.2022 14:35 10,0 C 9,9 C 10,1 C 87 % 1022,4 hPa 0,0 l/m 25,7 km/h (4 Bft) SW 225 0 min 0,0 UV-I 46 W/m 40,2 km/h (6 Bft)
29.01.2022 14:30 9,9 C 9,9 C 10,0 C 87 % 1022,6 hPa 0,0 l/m 24,1 km/h (4 Bft) W-SW 247 0 min 0,0 UV-I 44 W/m 35,4 km/h (5 Bft)
29.01.2022 14:25 9,9 C 9,9 C 10,1 C 87 % 1022,6 hPa 0,0 l/m 22,5 km/h (4 Bft) SW 225 0 min 0,0 UV-I 39 W/m 33,8 km/h (5 Bft)
29.01.2022 14:20 10,0 C 9,9 C 10,1 C 88 % 1022,9 hPa 0,0 l/m 25,7 km/h (4 Bft) SW 225 0 min 0,0 UV-I 95 W/m 37,0 km/h (5 Bft)
29.01.2022 14:15 9,9 C 9,9 C 9,9 C 88 % 1023,0 hPa 0,0 l/m 27,4 km/h (5 Bft) SW 225 0 min 0,0 UV-I 69 W/m 40,2 km/h (6 Bft)
29.01.2022 14:10 9,9 C 9,8 C 9,9 C 88 % 1023,1 hPa 0,0 l/m 25,7 km/h (4 Bft) W-SW 247 0 min 0,0 UV-I 95 W/m 35,4 km/h (5 Bft)
29.01.2022 14:05 9,8 C 9,7 C 9,8 C 88 % 1023,2 hPa 0,0 l/m 29,0 km/h (5 Bft) W-SW 247 0 min 0,0 UV-I 127 W/m 49,9 km/h (7 Bft)
29.01.2022 14:00 9,7 C 9,6 C 9,7 C 89 % 1023,1 hPa 0,0 l/m 29,0 km/h (5 Bft) W-SW 247 0 min 0,0 UV-I 132 W/m 35,4 km/h (5 Bft)
29.01.2022 13:55 9,6 C 9,6 C 9,6 C 89 % 1023,2 hPa 0,0 l/m 25,7 km/h (4 Bft) SW 225 0 min 0,0 UV-I 69 W/m 33,8 km/h (5 Bft)
29.01.2022 13:50 9,6 C 9,6 C 9,6 C 89 % 1023,2 hPa 0,0 l/m 25,7 km/h (4 Bft) SW 225 0 min 0,0 UV-I 69 W/m 40,2 km/h (6 Bft)
29.01.2022 13:45 9,6 C 9,6 C 9,6 C 89 % 1023,3 hPa 0,0 l/m 29,0 km/h (5 Bft) W-SW 247 0 min 0,0 UV-I 76 W/m 43,5 km/h (6 Bft)
29.01.2022 13:40 9,6 C 9,5 C 9,6 C 89 % 1023,3 hPa 0,0 l/m 32,2 km/h (5 Bft) W-SW 247 0 min 0,0 UV-I 88 W/m 45,1 km/h (6 Bft)
29.01.2022 13:35 9,4 C 9,3 C 9,5 C 90 % 1023,2 hPa 0,0 l/m 29,0 km/h (5 Bft) SW 225 0 min 0,0 UV-I 98 W/m 45,1 km/h (6 Bft)
29.01.2022 13:30 9,3 C 9,2 C 9,4 C 90 % 1023,2 hPa 0,0 l/m 30,6 km/h (5 Bft) SW 225 0 min 0,0 UV-I 97 W/m 41,8 km/h (6 Bft)
29.01.2022 13:25 9,3 C 9,2 C 9,3 C 91 % 1023,3 hPa 0,0 l/m 27,4 km/h (5 Bft) SW 225 0 min 0,0 UV-I 70 W/m 38,6 km/h (6 Bft)
29.01.2022 13:20 9,2 C 9,2 C 9,2 C 91 % 1023,5 hPa 0,0 l/m 25,7 km/h (4 Bft) W-SW 247 0 min 0,0 UV-I 46 W/m 35,4 km/h (5 Bft)
29.01.2022 13:15 9,2 C 9,1 C 9,2 C 91 % 1023,5 hPa 0,0 l/m 29,0 km/h (5 Bft) SW 225 0 min 0,0 UV-I 47 W/m 38,6 km/h (6 Bft)
29.01.2022 13:10 9,1 C 9,1 C 9,1 C 92 % 1023,8 hPa 0,0 l/m 27,4 km/h (5 Bft) SW 225 0 min 0,0 UV-I 67 W/m 48,3 km/h (6 Bft)
29.01.2022 13:05 9,1 C 9,0 C 9,1 C 92 % 1023,8 hPa 0,0 l/m 25,7 km/h (4 Bft) W-SW 247 0 min 0,0 UV-I 70 W/m 37,0 km/h (5 Bft)
29.01.2022 13:00 9,0 C 8,9 C 9,0 C 93 % 1023,7 hPa 0,0 l/m 24,1 km/h (4 Bft) SW 225 0 min 0,0 UV-I 95 W/m 33,8 km/h (5 Bft)
29.01.2022 12:55 8,9 C 8,8 C 8,9 C 93 % 1023,8 hPa 0,0 l/m 24,1 km/h (4 Bft) SW 225 0 min 0,0 UV-I 84 W/m 37,0 km/h (5 Bft)
29.01.2022 12:50 8,8 C 8,7 C 8,8 C 94 % 1024,0 hPa 0,0 l/m 25,7 km/h (4 Bft) SW 225 0 min 0,0 UV-I 90 W/m 40,2 km/h (6 Bft)
29.01.2022 12:45 8,7 C 8,7 C 8,7 C 93 % 1024,2 hPa 0,0 l/m 27,4 km/h (5 Bft) SW 225 0 min 0,0 UV-I 83 W/m 40,2 km/h (6 Bft)
29.01.2022 12:40 8,7 C 8,7 C 8,7 C 93 % 1024,1 hPa 0,0 l/m 24,1 km/h (4 Bft) SW 225 0 min 0,0 UV-I 56 W/m 33,8 km/h (5 Bft)
29.01.2022 12:35 8,6 C 8,6 C 8,7 C 94 % 1024,2 hPa 0,0 l/m 25,7 km/h (4 Bft) SW 225 0 min 0,0 UV-I 51 W/m 41,8 km/h (6 Bft)
29.01.2022 12:30 8,6 C 8,6 C 8,6 C 94 % 1024,2 hPa 0,0 l/m 24,1 km/h (4 Bft) SW 225 0 min 0,0 UV-I 69 W/m 37,0 km/h (5 Bft)
29.01.2022 12:25 8,6 C 8,5 C 8,6 C 94 % 1024,3 hPa 0,0 l/m 22,5 km/h (4 Bft) SW 225 0 min 0,0 UV-I 81 W/m 37,0 km/h (5 Bft)
29.01.2022 12:20 8,6 C 8,5 C 8,6 C 93 % 1024,5 hPa 0,0 l/m 24,1 km/h (4 Bft) SW 225 0 min 0,0 UV-I 67 W/m 33,8 km/h (5 Bft)
29.01.2022 12:15 8,5 C 8,4 C 8,5 C 93 % 1024,6 hPa 0,0 l/m 24,1 km/h (4 Bft) SW 225 0 min 0,0 UV-I 69 W/m 35,4 km/h (5 Bft)
29.01.2022 12:10 8,5 C 8,4 C 8,5 C 93 % 1024,8 hPa 0,0 l/m 24,1 km/h (4 Bft) SW 225 0 min 0,0 UV-I 63 W/m 33,8 km/h (5 Bft)
29.01.2022 12:05 8,5 C 8,4 C 8,5 C 93 % 1024,9 hPa 0,0 l/m 20,9 km/h (4 Bft) SW 225 0 min 0,0 UV-I 53 W/m 30,6 km/h (5 Bft)
29.01.2022 12:00 8,5 C 8,5 C 8,6 C 93 % 1025,0 hPa 0,0 l/m 25,7 km/h (4 Bft) SW 225 0 min 0,0 UV-I 47 W/m 35,4 km/h (5 Bft)
29.01.2022 11:55 8,5 C 8,5 C 8,6 C 92 % 1024,9 hPa 0,0 l/m 24,1 km/h (4 Bft) SW 225 0 min 0,0 UV-I 62 W/m 41,8 km/h (6 Bft)
29.01.2022 11:50 8,5 C 8,5 C 8,6 C 92 % 1025,1 hPa 0,0 l/m 24,1 km/h (4 Bft) W-SW 247 0 min 0,0 UV-I 58 W/m 41,8 km/h (6 Bft)
29.01.2022 11:45 8,6 C 8,6 C 8,6 C 91 % 1025,1 hPa 0,0 l/m 25,7 km/h (4 Bft) W-SW 247 0 min 0,0 UV-I 21 W/m 35,4 km/h (5 Bft)
29.01.2022 11:40 8,6 C 8,6 C 8,7 C 91 % 1025,0 hPa 0,0 l/m 22,5 km/h (4 Bft) SW 225 0 min 0,0 UV-I 37 W/m 33,8 km/h (5 Bft)
29.01.2022 11:35 8,6 C 8,6 C 8,6 C 91 % 1025,2 hPa 0,0 l/m 25,7 km/h (4 Bft) SW 225 0 min 0,0 UV-I 51 W/m 38,6 km/h (6 Bft)
29.01.2022 11:30 8,6 C 8,5 C 8,6 C 91 % 1025,2 hPa 0,0 l/m 24,1 km/h (4 Bft) SW 225 0 min 0,0 UV-I 40 W/m 33,8 km/h (5 Bft)
29.01.2022 11:25 8,5 C 8,5 C 8,6 C 91 % 1025,3 hPa 0,0 l/m 24,1 km/h (4 Bft) SW 225 0 min 0,0 UV-I 37 W/m 37,0 km/h (5 Bft)
29.01.2022 11:20 8,4 C 8,4 C 8,5 C 91 % 1025,4 hPa 0,0 l/m 20,9 km/h (4 Bft) SW 225 0 min 0,0 UV-I 37 W/m 32,2 km/h (5 Bft)
29.01.2022 11:15 8,4 C 8,4 C 8,5 C 91 % 1025,4 hPa 0,0 l/m 24,1 km/h (4 Bft) SW 225 0 min 0,0 UV-I 44 W/m 37,0 km/h (5 Bft)
29.01.2022 11:10 8,4 C 8,3 C 8,4 C 92 % 1025,5 hPa 0,0 l/m 22,5 km/h (4 Bft) W-SW 247 0 min 0,0 UV-I 62 W/m 38,6 km/h (6 Bft)
29.01.2022 11:05 8,3 C 8,3 C 8,3 C 92 % 1025,4 hPa 0,0 l/m 22,5 km/h (4 Bft) SW 225 0 min 0,0 UV-I 40 W/m 33,8 km/h (5 Bft)
29.01.2022 11:00 8,3 C 8,2 C 8,3 C 92 % 1025,5 hPa 0,0 l/m 22,5 km/h (4 Bft) SW 225 0 min 0,0 UV-I 32 W/m 33,8 km/h (5 Bft)
29.01.2022 10:55 8,2 C 8,2 C 8,2 C 92 % 1025,3 hPa 0,0 l/m 22,5 km/h (4 Bft) SW 225 0 min 0,0 UV-I 35 W/m 33,8 km/h (5 Bft)
29.01.2022 10:50 8,2 C 8,1 C 8,2 C 92 % 1025,3 hPa 0,0 l/m 22,5 km/h (4 Bft) SW 225 0 min 0,0 UV-I 32 W/m 32,2 km/h (5 Bft)
29.01.2022 10:45 8,1 C 8,1 C 8,1 C 92 % 1025,3 hPa 0,0 l/m 19,3 km/h (3 Bft) SW 225 0 min 0,0 UV-I 33 W/m 32,2 km/h (5 Bft)
29.01.2022 10:40 8,1 C 8,0 C 8,1 C 92 % 1025,4 hPa 0,0 l/m 20,9 km/h (4 Bft) SW 225 0 min 0,0 UV-I 47 W/m 32,2 km/h (5 Bft)
29.01.2022 10:35 8,0 C 7,9 C 8,0 C 92 % 1025,4 hPa 0,0 l/m 24,1 km/h (4 Bft) SW 225 0 min 0,0 UV-I 53 W/m 35,4 km/h (5 Bft)
29.01.2022 10:30 7,9 C 7,9 C 7,9 C 93 % 1025,5 hPa 0,0 l/m 24,1 km/h (4 Bft) SW 225 0 min 0,0 UV-I 47 W/m 33,8 km/h (5 Bft)
29.01.2022 10:25 7,9 C 7,8 C 7,9 C 93 % 1025,5 hPa 0,0 l/m 22,5 km/h (4 Bft) SW 225 0 min 0,0 UV-I 42 W/m 37,0 km/h (5 Bft)
29.01.2022 10:20 7,8 C 7,8 C 7,8 C 93 % 1025,5 hPa 0,0 l/m 20,9 km/h (4 Bft) SW 225 0 min 0,0 UV-I 46 W/m 38,6 km/h (6 Bft)
29.01.2022 10:15 7,8 C 7,7 C 7,8 C 93 % 1025,4 hPa 0,0 l/m 22,5 km/h (4 Bft) SW 225 0 min 0,0 UV-I 37 W/m 30,6 km/h (5 Bft)
29.01.2022 10:10 7,7 C 7,7 C 7,7 C 93 % 1025,6 hPa 0,0 l/m 20,9 km/h (4 Bft) SW 225 0 min 0,0 UV-I 35 W/m 30,6 km/h (5 Bft)
29.01.2022 10:05 7,7 C 7,7 C 7,7 C 92 % 1025,7 hPa 0,0 l/m 22,5 km/h (4 Bft) SW 225 0 min 0,0 UV-I 30 W/m 33,8 km/h (5 Bft)
29.01.2022 10:00 7,7 C 7,7 C 7,7 C 92 % 1025,8 hPa 0,0 l/m 22,5 km/h (4 Bft) SW 225 0 min 0,0 UV-I 32 W/m 30,6 km/h (5 Bft)
29.01.2022 09:55 7,7 C 7,6 C 7,7 C 92 % 1025,8 hPa 0,0 l/m 24,1 km/h (4 Bft) W-SW 247 0 min 0,0 UV-I 32 W/m 40,2 km/h (6 Bft)
29.01.2022 09:50 7,6 C 7,6 C 7,7 C 92 % 1025,9 hPa 0,0 l/m 20,9 km/h (4 Bft) SW 225 0 min 0,0 UV-I 16 W/m 29,0 km/h (5 Bft)
29.01.2022 09:45 7,7 C 7,6 C 7,7 C 92 % 1025,9 hPa 0,0 l/m 20,9 km/h (4 Bft) SW 225 0 min 0,0 UV-I 12 W/m 30,6 km/h (5 Bft)
29.01.2022 09:40 7,6 C 7,6 C 7,6 C 92 % 1026,0 hPa 0,0 l/m 22,5 km/h (4 Bft) SW 225 0 min 0,0 UV-I 19 W/m 33,8 km/h (5 Bft)
29.01.2022 09:35 7,5 C 7,4 C 7,6 C 92 % 1025,9 hPa 0,0 l/m 22,5 km/h (4 Bft) SW 225 0 min 0,0 UV-I 16 W/m 32,2 km/h (5 Bft)
29.01.2022 09:30 7,4 C 7,4 C 7,4 C 92 % 1025,9 hPa 0,0 l/m 22,5 km/h (4 Bft) SW 225 0 min 0,0 UV-I 16 W/m 32,2 km/h (5 Bft)
29.01.2022 09:25 7,4 C 7,4 C 7,4 C 92 % 1026,0 hPa 0,0 l/m 22,5 km/h (4 Bft) SW 225 0 min 0,0 UV-I 12 W/m 35,4 km/h (5 Bft)
29.01.2022 09:20 7,4 C 7,3 C 7,4 C 92 % 1026,1 hPa 0,0 l/m 22,5 km/h (4 Bft) SW 225 0 min 0,0 UV-I 11 W/m 33,8 km/h (5 Bft)
29.01.2022 09:15 7,3 C 7,3 C 7,3 C 93 % 1026,0 hPa 0,0 l/m 20,9 km/h (4 Bft) SW 225 0 min 0,0 UV-I 9 W/m 32,2 km/h (5 Bft)
29.01.2022 09:10 7,3 C 7,2 C 7,3 C 93 % 1026,1 hPa 0,0 l/m 22,5 km/h (4 Bft) SW 225 0 min 0,0 UV-I 9 W/m 33,8 km/h (5 Bft)
29.01.2022 09:05 7,3 C 7,2 C 7,3 C 93 % 1026,2 hPa 0,0 l/m 24,1 km/h (4 Bft) SW 225 0 min 0,0 UV-I 5 W/m 32,2 km/h (5 Bft)
29.01.2022 09:00 7,2 C 7,2 C 7,3 C 93 % 1026,3 hPa 0,0 l/m 20,9 km/h (4 Bft) SW 225 0 min 0,0 UV-I 0 W/m 33,8 km/h (5 Bft)
29.01.2022 08:55 7,2 C 7,2 C 7,2 C 93 % 1026,4 hPa 0,0 l/m 20,9 km/h (4 Bft) SW 225 0 min 0,0 UV-I 0 W/m 40,2 km/h (6 Bft)
29.01.2022 08:50 7,2 C 7,1 C 7,2 C 93 % 1026,5 hPa 0,0 l/m 27,4 km/h (5 Bft) W-SW 247 0 min 0,0 UV-I 0 W/m 40,2 km/h (6 Bft)
29.01.2022 08:45 7,1 C 7,1 C 7,2 C 93 % 1026,4 hPa 0,0 l/m 22,5 km/h (4 Bft) W-SW 247 0 min 0,0 UV-I 0 W/m 33,8 km/h (5 Bft)
29.01.2022 08:40 7,1 C 7,1 C 7,1 C 93 % 1026,5 hPa 0,0 l/m 24,1 km/h (4 Bft) W-SW 247 0 min 0,0 UV-I 0 W/m 30,6 km/h (5 Bft)
29.01.2022 08:35 7,1 C 7,0 C 7,1 C 93 % 1026,5 hPa 0,0 l/m 19,3 km/h (3 Bft) SW 225 0 min 0,0 UV-I 0 W/m 27,4 km/h (5 Bft)
29.01.2022 08:30 7,1 C 6,9 C 7,1 C 93 % 1026,7 hPa 0,0 l/m 24,1 km/h (4 Bft) SW 225 0 min 0,0 UV-I 0 W/m 35,4 km/h (5 Bft)
29.01.2022 08:25 7,0 C 6,9 C 7,0 C 93 % 1026,4 hPa 0,0 l/m 24,1 km/h (4 Bft) SW 225 0 min 0,0 UV-I 0 W/m 33,8 km/h (5 Bft)
29.01.2022 08:20 6,9 C 6,9 C 6,9 C 93 % 1026,8 hPa 0,0 l/m 22,5 km/h (4 Bft) SW 225 0 min 0,0 UV-I 0 W/m 33,8 km/h (5 Bft)
29.01.2022 08:15 6,9 C 6,8 C 6,9 C 93 % 1026,7 hPa 0,0 l/m 24,1 km/h (4 Bft) SW 225 0 min 0,0 UV-I 0 W/m 37,0 km/h (5 Bft)
29.01.2022 08:10 6,9 C 6,8 C 6,9 C 93 % 1026,7 hPa 0,0 l/m 20,9 km/h (4 Bft) SW 225 0 min 0,0 UV-I 0 W/m 32,2 km/h (5 Bft)
29.01.2022 08:05 6,8 C 6,8 C 6,8 C 93 % 1026,6 hPa 0,0 l/m 20,9 km/h (4 Bft) SW 225 0 min 0,0 UV-I 0 W/m 29,0 km/h (5 Bft)
29.01.2022 08:00 6,8 C 6,7 C 6,8 C 93 % 1026,7 hPa 0,0 l/m 20,9 km/h (4 Bft) SW 225 0 min 0,0 UV-I 0 W/m 33,8 km/h (5 Bft)
29.01.2022 07:55 6,7 C 6,7 C 6,8 C 93 % 1026,7 hPa 0,0 l/m 19,3 km/h (3 Bft) SW 225 0 min 0,0 UV-I 0 W/m 29,0 km/h (5 Bft)
29.01.2022 07:50 6,7 C 6,7 C 6,7 C 93 % 1026,7 hPa 0,0 l/m 17,7 km/h (3 Bft) SW 225 0 min 0,0 UV-I 0 W/m 24,1 km/h (4 Bft)
29.01.2022 07:45 6,7 C 6,6 C 6,7 C 93 % 1026,7 hPa 0,0 l/m 16,1 km/h (3 Bft) SW 225 0 min 0,0 UV-I 0 W/m 27,4 km/h (5 Bft)
29.01.2022 07:40 6,7 C 6,6 C 6,7 C 93 % 1026,7 hPa 0,0 l/m 17,7 km/h (3 Bft) SW 225 0 min 0,0 UV-I 0 W/m 30,6 km/h (5 Bft)
29.01.2022 07:35 6,7 C 6,6 C 6,7 C 93 % 1026,9 hPa 0,0 l/m 20,9 km/h (4 Bft) SW 225 0 min 0,0 UV-I 0 W/m 33,8 km/h (5 Bft)
29.01.2022 07:30 6,6 C 6,6 C 6,6 C 93 % 1026,9 hPa 0,0 l/m 19,3 km/h (3 Bft) SW 225 0 min 0,0 UV-I 0 W/m 29,0 km/h (5 Bft)
29.01.2022 07:25 6,6 C 6,6 C 6,6 C 93 % 1026,9 hPa 0,0 l/m 22,5 km/h (4 Bft) SW 225 0 min 0,0 UV-I 0 W/m 33,8 km/h (5 Bft)
29.01.2022 07:20 6,6 C 6,5 C 6,6 C 93 % 1027,0 hPa 0,0 l/m 22,5 km/h (4 Bft) SW 225 0 min 0,0 UV-I 0 W/m 33,8 km/h (5 Bft)
29.01.2022 07:15 6,6 C 6,5 C 6,6 C 93 % 1027,0 hPa 0,0 l/m 20,9 km/h (4 Bft) SW 225 0 min 0,0 UV-I 0 W/m 35,4 km/h (5 Bft)
29.01.2022 07:10 6,5 C 6,4 C 6,5 C 93 % 1027,1 hPa 0,0 l/m 19,3 km/h (3 Bft) SW 225 0 min 0,0 UV-I 0 W/m 27,4 km/h (5 Bft)
29.01.2022 07:05 6,4 C 6,4 C 6,5 C 93 % 1027,1 hPa 0,0 l/m 20,9 km/h (4 Bft) SW 225 0 min 0,0 UV-I 0 W/m 33,8 km/h (5 Bft)
29.01.2022 07:00 6,4 C 6,3 C 6,4 C 93 % 1027,2 hPa 0,0 l/m 19,3 km/h (3 Bft) SW 225 0 min 0,0 UV-I 0 W/m 30,6 km/h (5 Bft)
29.01.2022 06:55 6,3 C 6,3 C 6,3 C 93 % 1027,1 hPa 0,0 l/m 17,7 km/h (3 Bft) SW 225 0 min 0,0 UV-I 0 W/m 25,7 km/h (4 Bft)
29.01.2022 06:50 6,3 C 6,2 C 6,3 C 93 % 1027,1 hPa 0,0 l/m 19,3 km/h (3 Bft) SW 225 0 min 0,0 UV-I 0 W/m 29,0 km/h (5 Bft)
29.01.2022 06:45 6,3 C 6,2 C 6,3 C 93 % 1027,2 hPa 0,0 l/m 17,7 km/h (3 Bft) SW 225 0 min 0,0 UV-I 0 W/m 35,4 km/h (5 Bft)
29.01.2022 06:40 6,3 C 6,2 C 6,3 C 93 % 1027,2 hPa 0,0 l/m 17,7 km/h (3 Bft) SW 225 0 min 0,0 UV-I 0 W/m 30,6 km/h (5 Bft)
29.01.2022 06:35 6,2 C 6,1 C 6,2 C 93 % 1027,3 hPa 0,0 l/m 16,1 km/h (3 Bft) SW 225 0 min 0,0 UV-I 0 W/m 24,1 km/h (4 Bft)
29.01.2022 06:30 6,2 C 6,1 C 6,2 C 93 % 1027,3 hPa 0,0 l/m 17,7 km/h (3 Bft) SW 225 0 min 0,0 UV-I 0 W/m 24,1 km/h (4 Bft)
29.01.2022 06:25 6,2 C 6,1 C 6,2 C 93 % 1027,4 hPa 0,0 l/m 20,9 km/h (4 Bft) SW 225 0 min 0,0 UV-I 0 W/m 29,0 km/h (5 Bft)
29.01.2022 06:20 6,1 C 6,1 C 6,1 C 93 % 1027,4 hPa 0,0 l/m 19,3 km/h (3 Bft) SW 225 0 min 0,0 UV-I 0 W/m 30,6 km/h (5 Bft)
29.01.2022 06:15 6,1 C 6,0 C 6,1 C 93 % 1027,6 hPa 0,0 l/m 19,3 km/h (3 Bft) SW 225 0 min 0,0 UV-I 0 W/m 30,6 km/h (5 Bft)
29.01.2022 06:10 6,1 C 6,0 C 6,1 C 93 % 1027,5 hPa 0,0 l/m 16,1 km/h (3 Bft) SW 225 0 min 0,0 UV-I 0 W/m 24,1 km/h (4 Bft)
29.01.2022 06:05 6,1 C 6,0 C 6,1 C 93 % 1027,6 hPa 0,0 l/m 19,3 km/h (3 Bft) SW 225 0 min 0,0 UV-I 0 W/m 29,0 km/h (5 Bft)
29.01.2022 06:00 6,0 C 5,9 C 6,0 C 93 % 1027,6 hPa 0,0 l/m 19,3 km/h (3 Bft) SW 225 0 min 0,0 UV-I 0 W/m 29,0 km/h (5 Bft)
29.01.2022 05:55 5,9 C 5,9 C 6,0 C 93 % 1027,6 hPa 0,0 l/m 19,3 km/h (3 Bft) SW 225 0 min 0,0 UV-I 0 W/m 32,2 km/h (5 Bft)
29.01.2022 05:50 6,0 C 5,9 C 6,0 C 93 % 1027,8 hPa 0,0 l/m 16,1 km/h (3 Bft) SW 225 0 min 0,0 UV-I 0 W/m 24,1 km/h (4 Bft)
29.01.2022 05:45 5,9 C 5,9 C 6,0 C 92 % 1027,7 hPa 0,0 l/m 17,7 km/h (3 Bft) SW 225 0 min 0,0 UV-I 0 W/m 24,1 km/h (4 Bft)
29.01.2022 05:40 5,9 C 5,9 C 6,0 C 92 % 1027,8 hPa 0,0 l/m 16,1 km/h (3 Bft) SW 225 0 min 0,0 UV-I 0 W/m 24,1 km/h (4 Bft)
29.01.2022 05:35 5,9 C 5,9 C 6,1 C 92 % 1027,7 hPa 0,0 l/m 17,7 km/h (3 Bft) SW 225 0 min 0,0 UV-I 0 W/m 25,7 km/h (4 Bft)
29.01.2022 05:30 6,1 C 6,0 C 6,1 C 91 % 1027,8 hPa 0,0 l/m 16,1 km/h (3 Bft) SW 225 0 min 0,0 UV-I 0 W/m 22,5 km/h (4 Bft)
29.01.2022 05:25 6,0 C 5,9 C 6,1 C 91 % 1027,9 hPa 0,0 l/m 19,3 km/h (3 Bft) SW 225 0 min 0,0 UV-I 0 W/m 30,6 km/h (5 Bft)
29.01.2022 05:20 5,9 C 5,9 C 6,0 C 91 % 1027,7 hPa 0,0 l/m 16,1 km/h (3 Bft) SW 225 0 min 0,0 UV-I 0 W/m 25,7 km/h (4 Bft)
29.01.2022 05:15 5,9 C 5,9 C 6,0 C 91 % 1027,8 hPa 0,0 l/m 16,1 km/h (3 Bft) SW 225 0 min 0,0 UV-I 0 W/m 29,0 km/h (5 Bft)
29.01.2022 05:10 5,9 C 5,9 C 5,9 C 91 % 1027,7 hPa 0,0 l/m 17,7 km/h (3 Bft) SW 225 0 min 0,0 UV-I 0 W/m 33,8 km/h (5 Bft)
29.01.2022 05:05 5,9 C 5,9 C 5,9 C 91 % 1027,8 hPa 0,0 l/m 16,1 km/h (3 Bft) SW 225 0 min 0,0 UV-I 0 W/m 24,1 km/h (4 Bft)
29.01.2022 05:00 5,9 C 5,8 C 5,9 C 91 % 1027,9 hPa 0,0 l/m 19,3 km/h (3 Bft) SW 225 0 min 0,0 UV-I 0 W/m 30,6 km/h (5 Bft)
29.01.2022 04:55 5,9 C 5,8 C 5,9 C 91 % 1027,9 hPa 0,0 l/m 20,9 km/h (4 Bft) SW 225 0 min 0,0 UV-I 0 W/m 29,0 km/h (5 Bft)
29.01.2022 04:50 5,8 C 5,8 C 5,8 C 91 % 1028,1 hPa 0,0 l/m 20,9 km/h (4 Bft) SW 225 0 min 0,0 UV-I 0 W/m 30,6 km/h (5 Bft)
29.01.2022 04:45 5,8 C 5,7 C 5,8 C 91 % 1028,1 hPa 0,0 l/m 19,3 km/h (3 Bft) SW 225 0 min 0,0 UV-I 0 W/m 29,0 km/h (5 Bft)
29.01.2022 04:40 5,8 C 5,7 C 5,8 C 91 % 1028,0 hPa 0,0 l/m 19,3 km/h (3 Bft) SW 225 0 min 0,0 UV-I 0 W/m 30,6 km/h (5 Bft)
29.01.2022 04:35 5,7 C 5,7 C 5,8 C 91 % 1028,0 hPa 0,0 l/m 17,7 km/h (3 Bft) SW 225 0 min 0,0 UV-I 0 W/m 30,6 km/h (5 Bft)
29.01.2022 04:30 5,7 C 5,7 C 5,7 C 91 % 1028,2 hPa 0,0 l/m 17,7 km/h (3 Bft) SW 225 0 min 0,0 UV-I 0 W/m 29,0 km/h (5 Bft)
29.01.2022 04:25 5,7 C 5,7 C 5,7 C 91 % 1028,1 hPa 0,0 l/m 17,7 km/h (3 Bft) SW 225 0 min 0,0 UV-I 0 W/m 30,6 km/h (5 Bft)
29.01.2022 04:20 5,7 C 5,7 C 5,7 C 91 % 1028,2 hPa 0,0 l/m 16,1 km/h (3 Bft) SW 225 0 min 0,0 UV-I 0 W/m 27,4 km/h (5 Bft)
29.01.2022 04:15 5,7 C 5,7 C 5,7 C 91 % 1028,2 hPa 0,0 l/m 16,1 km/h (3 Bft) SW 225 0 min 0,0 UV-I 0 W/m 29,0 km/h (5 Bft)
29.01.2022 04:10 5,7 C 5,7 C 5,7 C 91 % 1028,3 hPa 0,0 l/m 17,7 km/h (3 Bft) SW 225 0 min 0,0 UV-I 0 W/m 29,0 km/h (5 Bft)
29.01.2022 04:05 5,7 C 5,7 C 5,7 C 91 % 1028,4 hPa 0,0 l/m 19,3 km/h (3 Bft) SW 225 0 min 0,0 UV-I 0 W/m 29,0 km/h (5 Bft)
29.01.2022 04:00 5,7 C 5,7 C 5,7 C 91 % 1028,6 hPa 0,0 l/m 20,9 km/h (4 Bft) SW 225 0 min 0,0 UV-I 0 W/m 29,0 km/h (5 Bft)
29.01.2022 03:55 5,7 C 5,7 C 5,7 C 91 % 1028,6 hPa 0,0 l/m 19,3 km/h (3 Bft) SW 225 0 min 0,0 UV-I 0 W/m 29,0 km/h (5 Bft)
29.01.2022 03:50 5,7 C 5,7 C 5,8 C 90 % 1028,6 hPa 0,0 l/m 20,9 km/h (4 Bft) SW 225 0 min 0,0 UV-I 0 W/m 29,0 km/h (5 Bft)
29.01.2022 03:45 5,8 C 5,7 C 5,8 C 90 % 1028,8 hPa 0,0 l/m 17,7 km/h (3 Bft) SW 225 0 min 0,0 UV-I 0 W/m 25,7 km/h (4 Bft)
29.01.2022 03:40 5,8 C 5,8 C 5,8 C 90 % 1028,9 hPa 0,0 l/m 17,7 km/h (3 Bft) SW 225 0 min 0,0 UV-I 0 W/m 33,8 km/h (5 Bft)
29.01.2022 03:35 5,8 C 5,8 C 5,8 C 90 % 1029,0 hPa 0,0 l/m 17,7 km/h (3 Bft) SW 225 0 min 0,0 UV-I 0 W/m 29,0 km/h (5 Bft)
29.01.2022 03:30 5,8 C 5,8 C 5,8 C 89 % 1029,1 hPa 0,0 l/m 19,3 km/h (3 Bft) W-SW 247 0 min 0,0 UV-I 0 W/m 30,6 km/h (5 Bft)
29.01.2022 03:25 5,8 C 5,8 C 5,8 C 89 % 1029,1 hPa 0,0 l/m 20,9 km/h (4 Bft) SW 225 0 min 0,0 UV-I 0 W/m 30,6 km/h (5 Bft)
29.01.2022 03:20 5,8 C 5,8 C 5,8 C 89 % 1029,2 hPa 0,0 l/m 20,9 km/h (4 Bft) SW 225 0 min 0,0 UV-I 0 W/m 32,2 km/h (5 Bft)
29.01.2022 03:15 5,8 C 5,8 C 5,8 C 89 % 1029,2 hPa 0,0 l/m 17,7 km/h (3 Bft) SW 225 0 min 0,0 UV-I 0 W/m 27,4 km/h (5 Bft)
29.01.2022 03:10 5,8 C 5,8 C 5,8 C 89 % 1029,1 hPa 0,0 l/m 19,3 km/h (3 Bft) SW 225 0 min 0,0 UV-I 0 W/m 33,8 km/h (5 Bft)
29.01.2022 03:05 5,8 C 5,8 C 5,9 C 89 % 1029,4 hPa 0,0 l/m 17,7 km/h (3 Bft) SW 225 0 min 0,0 UV-I 0 W/m 27,4 km/h (5 Bft)
29.01.2022 03:00 5,8 C 5,8 C 5,9 C 89 % 1029,4 hPa 0,0 l/m 17,7 km/h (3 Bft) SW 225 0 min 0,0 UV-I 0 W/m 29,0 km/h (5 Bft)
29.01.2022 02:55 5,9 C 5,8 C 5,9 C 89 % 1029,4 hPa 0,0 l/m 19,3 km/h (3 Bft) SW 225 0 min 0,0 UV-I 0 W/m 30,6 km/h (5 Bft)
29.01.2022 02:50 5,8 C 5,8 C 5,8 C 89 % 1029,6 hPa 0,0 l/m 17,7 km/h (3 Bft) SW 225 0 min 0,0 UV-I 0 W/m 30,6 km/h (5 Bft)
29.01.2022 02:45 5,8 C 5,7 C 5,8 C 89 % 1029,7 hPa 0,0 l/m 17,7 km/h (3 Bft) SW 225 0 min 0,0 UV-I 0 W/m 27,4 km/h (5 Bft)
29.01.2022 02:40 5,7 C 5,7 C 5,7 C 89 % 1029,7 hPa 0,0 l/m 17,7 km/h (3 Bft) SW 225 0 min 0,0 UV-I 0 W/m 33,8 km/h (5 Bft)
29.01.2022 02:35 5,7 C 5,7 C 5,7 C 89 % 1029,8 hPa 0,0 l/m 17,7 km/h (3 Bft) SW 225 0 min 0,0 UV-I 0 W/m 29,0 km/h (5 Bft)
29.01.2022 02:30 5,7 C 5,7 C 5,7 C 90 % 1030,0 hPa 0,0 l/m 14,5 km/h (3 Bft) SW 225 0 min 0,0 UV-I 0 W/m 25,7 km/h (4 Bft)
29.01.2022 02:25 5,7 C 5,7 C 5,7 C 90 % 1030,2 hPa 0,0 l/m 16,1 km/h (3 Bft) SW 225 0 min 0,0 UV-I 0 W/m 27,4 km/h (5 Bft)
29.01.2022 02:20 5,7 C 5,7 C 5,7 C 89 % 1030,1 hPa 0,0 l/m 17,7 km/h (3 Bft) SW 225 0 min 0,0 UV-I 0 W/m 30,6 km/h (5 Bft)
29.01.2022 02:15 5,7 C 5,7 C 5,7 C 89 % 1029,9 hPa 0,0 l/m 17,7 km/h (3 Bft) SW 225 0 min 0,0 UV-I 0 W/m 32,2 km/h (5 Bft)
29.01.2022 02:10 5,7 C 5,7 C 5,7 C 89 % 1029,8 hPa 0,0 l/m 24,1 km/h (4 Bft) SW 225 0 min 0,0 UV-I 0 W/m 38,6 km/h (6 Bft)
29.01.2022 02:05 5,7 C 5,7 C 5,7 C 89 % 1030,1 hPa 0,0 l/m 20,9 km/h (4 Bft) SW 225 0 min 0,0 UV-I 0 W/m 33,8 km/h (5 Bft)
29.01.2022 02:00 5,7 C 5,7 C 5,7 C 89 % 1030,3 hPa 0,0 l/m 16,1 km/h (3 Bft) SW 225 0 min 0,0 UV-I 0 W/m 25,7 km/h (4 Bft)
29.01.2022 01:55 5,7 C 5,7 C 5,7 C 89 % 1030,5 hPa 0,0 l/m 16,1 km/h (3 Bft) SW 225 0 min 0,0 UV-I 0 W/m 27,4 km/h (5 Bft)
29.01.2022 01:50 5,7 C 5,7 C 5,7 C 89 % 1030,5 hPa 0,0 l/m 19,3 km/h (3 Bft) SW 225 0 min 0,0 UV-I 0 W/m 32,2 km/h (5 Bft)
29.01.2022 01:45 5,7 C 5,6 C 5,7 C 89 % 1030,6 hPa 0,0 l/m 19,3 km/h (3 Bft) SW 225 0 min 0,0 UV-I 0 W/m 32,2 km/h (5 Bft)
29.01.2022 01:40 5,7 C 5,6 C 5,7 C 89 % 1030,7 hPa 0,0 l/m 20,9 km/h (4 Bft) SW 225 0 min 0,0 UV-I 0 W/m 32,2 km/h (5 Bft)
29.01.2022 01:35 5,6 C 5,6 C 5,7 C 89 % 1030,8 hPa 0,0 l/m 17,7 km/h (3 Bft) SW 225 0 min 0,0 UV-I 0 W/m 27,4 km/h (5 Bft)
29.01.2022 01:30 5,6 C 5,6 C 5,6 C 89 % 1030,8 hPa 0,0 l/m 19,3 km/h (3 Bft) SW 225 0 min 0,0 UV-I 0 W/m 29,0 km/h (5 Bft)
29.01.2022 01:25 5,6 C 5,6 C 5,6 C 89 % 1030,8 hPa 0,0 l/m 19,3 km/h (3 Bft) SW 225 0 min 0,0 UV-I 0 W/m 29,0 km/h (5 Bft)
29.01.2022 01:20 5,6 C 5,6 C 5,6 C 89 % 1031,0 hPa 0,0 l/m 19,3 km/h (3 Bft) SW 225 0 min 0,0 UV-I 0 W/m 32,2 km/h (5 Bft)
29.01.2022 01:15 5,6 C 5,6 C 5,6 C 89 % 1030,9 hPa 0,0 l/m 19,3 km/h (3 Bft) W-SW 247 0 min 0,0 UV-I 0 W/m 30,6 km/h (5 Bft)
29.01.2022 01:10 5,6 C 5,5 C 5,6 C 89 % 1031,1 hPa 0,0 l/m 19,3 km/h (3 Bft) SW 225 0 min 0,0 UV-I 0 W/m 30,6 km/h (5 Bft)
29.01.2022 01:05 5,5 C 5,4 C 5,5 C 89 % 1031,3 hPa 0,0 l/m 22,5 km/h (4 Bft) SW 225 0 min 0,0 UV-I 0 W/m 35,4 km/h (5 Bft)
29.01.2022 01:00 5,4 C 5,4 C 5,4 C 89 % 1031,3 hPa 0,0 l/m 19,3 km/h (3 Bft) SW 225 0 min 0,0 UV-I 0 W/m 27,4 km/h (5 Bft)
29.01.2022 00:55 5,4 C 5,3 C 5,4 C 89 % 1031,3 hPa 0,0 l/m 17,7 km/h (3 Bft) SW 225 0 min 0,0 UV-I 0 W/m 32,2 km/h (5 Bft)
29.01.2022 00:50 5,3 C 5,3 C 5,4 C 89 % 1031,2 hPa 0,0 l/m 14,5 km/h (3 Bft) SW 225 0 min 0,0 UV-I 0 W/m 24,1 km/h (4 Bft)
29.01.2022 00:45 5,4 C 5,3 C 5,4 C 89 % 1031,3 hPa 0,0 l/m 14,5 km/h (3 Bft) SW 225 0 min 0,0 UV-I 0 W/m 22,5 km/h (4 Bft)
29.01.2022 00:40 5,4 C 5,3 C 5,4 C 89 % 1031,3 hPa 0,0 l/m 14,5 km/h (3 Bft) SW 225 0 min 0,0 UV-I 0 W/m 22,5 km/h (4 Bft)
29.01.2022 00:35 5,4 C 5,3 C 5,4 C 89 % 1031,3 hPa 0,0 l/m 16,1 km/h (3 Bft) SW 225 0 min 0,0 UV-I 0 W/m 30,6 km/h (5 Bft)
29.01.2022 00:30 5,4 C 5,4 C 5,4 C 89 % 1031,2 hPa 0,0 l/m 14,5 km/h (3 Bft) SW 225 0 min 0,0 UV-I 0 W/m 27,4 km/h (5 Bft)
29.01.2022 00:25 5,4 C 5,4 C 5,4 C 89 % 1031,3 hPa 0,0 l/m 16,1 km/h (3 Bft) SW 225 0 min 0,0 UV-I 0 W/m 29,0 km/h (5 Bft)
29.01.2022 00:20 5,4 C 5,3 C 5,4 C 89 % 1031,3 hPa 0,0 l/m 16,1 km/h (3 Bft) S-SW 202 0 min 0,0 UV-I 0 W/m 24,1 km/h (4 Bft)
29.01.2022 00:15 5,3 C 5,3 C 5,4 C 89 % 1031,6 hPa 0,0 l/m 16,1 km/h (3 Bft) S-SW 202 0 min 0,0 UV-I 0 W/m 25,7 km/h (4 Bft)
29.01.2022 00:10 5,3 C 5,3 C 5,4 C 89 % 1031,5 hPa 0,0 l/m 14,5 km/h (3 Bft) S-SW 202 0 min 0,0 UV-I 0 W/m 22,5 km/h (4 Bft)
29.01.2022 00:05 5,3 C 5,3 C 5,4 C 89 % 1031,6 hPa 0,0 l/m 14,5 km/h (3 Bft) S-SW 202 0 min 0,0 UV-I 0 W/m 24,1 km/h (4 Bft)
29.01.2022 00:00 5,3 C 5,3 C 5,4 C 89 % 1031,7 hPa 0,0 l/m 12,9 km/h (3 Bft) S-SW 202 0 min 0,0 UV-I 0 W/m 20,9 km/h (4 Bft)
_ Min-Zeit 00:05 00:00 00:00 14:25 14:35 - 00:00 - - - - - 00:00
Minimum _ 5,3 C 5,3 C 5,4 C 87 % 1022,4 hPa - 12,9 km/h (3 Bft) - - - - - 20,9 km/h (4 Bft)
_ Max-Zeit 15:00 14:50 15:00 12:25 00:00 00:00 13:40 - - 00:00 00:00 14:00 14:05
Maximum _ 10,2 C 10,1 C 10,2 C 94 % 1031,7 hPa 0,0 l/m 32,2 km/h
W-SW (5 Bft)
- - 0 min 0,0 UV-I 132 W/m 49,9 km/h
SW (7 Bft)
Durchschnitt _ 7,1 C 7,1 C 7,2 C 91 % 1026,9 hPa #0,0 l/m 21,2 km/h (4 Bft) SW - #0 min. 0,0 UV-I 49 W/m 32,5 km/h (5 Bft)